Simultaneous Nadir Overpasses (SNOs) Predictions

Prediction of SNOs between GOES-14 and AQUA Satellite Orbit:

Table of predicted SNOs for the next 14.0 days since TLE Epoch: 5/24/2019
Index Date Time (GOES-14) GOES-14 Lat,Lon AQUA Lat,Lon Distance(km) Time Diff (sec)
1 05/25/2019 08:23:38 0.06,-104.40 -0.49,-101.72 304.67 80
2 05/25/2019 20:45:04 -0.04,-104.51 -0.54,-106.93 274.74 80
3 05/27/2019 20:30:12 -0.05,-104.52 0.06,-103.97 62.22 80
4 05/29/2019 20:18:00 -0.05,-104.53 0.67,-101.01 399.27 80
5 05/30/2019 08:39:15 0.03,-104.42 0.41,-106.17 199.23 80
6 06/01/2019 08:29:43 0.03,-104.42 -0.20,-103.21 137.78 80
7 06/01/2019 20:48:28 -0.01,-104.55 -0.83,-108.42 440.15 80
8 06/03/2019 08:17:32 0.03,-104.43 -0.88,-100.26 474.51 80
9 06/03/2019 20:36:16 -0.01,-104.55 -0.21,-105.46 103.71 80
10 06/05/2019 20:26:45 -0.01,-104.55 0.42,-102.50 232.46 80
11 06/06/2019 08:45:19 -0.01,-104.42 0.67,-107.66 367.83 80




NCC Satellite Simultaneous Nadir Overpasses (SNOs) Prediction Service
